Regional Weather Roundup
Issued by NWS Grand Forks, ND

Home | Current Version | Previous Version | Text Only | Print | Product List | Glossary On
Versions: 1 2 3 4 5 6 7 8 9 10 11 12 13 14 15 16 17 18 19 20 21 22 23 24 25 26 27 28 29 30 31 32 33 34 35 36 37 38 39 40 41 42 43 44 45 46 47 48 49 50
000
ASUS43 KFGF 060131
RWRFGF
PRAIRIE TO PINES  WEATHER ROUNDUP
NATIONAL WEATHER SERVICE EASTERN NORTH DAKOTA/GRAND FORKS ND
800 PM CDT TUE MAY 05 2015

 **SATELLITE DATA USED TO AUGMENT SKY COVER AT AUTOMATED STATIONS**
 *****  WEATHER ACROSS EASTERN NORTH DAKOTA  *****

CITY           SKY/WX    TMP DP  RH WIND       PRES   REMARKS
GRAND FORKS    FAIR      74  31  20 SE12      29.93F
GRAND FRKS AFB FAIR      73  33  23 SE8       29.93F
GRAND FRKS NWS   N/A     70 N/A N/A SE12        N/A
DEVILS LAKE    CLOUDY    66  37  34 SE7       29.90F
FARGO          MOCLDY    74  50  42 S22G30    29.96S
WAHPETON ARPT  MOCLDY    68  50  52 SE22G29   30.00R
$$

 ***** WEATHER ACROSS CENTRAL AND WESTERN NORTH DAKOTA  *****

CITY           SKY/WX    TMP DP  RH WIND       PRES   REMARKS
BISMARCK       CLEAR     74  45  35 S15       29.84S
MINOT          FAIR      74  32  21 SE18G25   29.81F
JAMESTOWN      FAIR      72  49  44 SE20G28   29.90S
MINOT AFB      FAIR      73  33  22 S16       29.80F
GARRISON         N/A     72  41  32 S14       29.82F
WILLISTON      SUNNY     76  49  38 SE17G29   29.74S
DICKINSON      PTCLDY    66  49  54 S23G33    29.79F
HETTINGER      PTCLDY    63  51  65 SE16G23   29.82F
$$

 *****  OTHER AIRPORT OBSERVATIONS IN OUR AREA  *****

CITY           SKY/WX    TMP DP  RH WIND       PRES   REMARKS
WALHALLA       FAIR      72  25  17 SE9       29.94S
GRAFTON AIRPOR FAIR      72  27  18 SE12      29.95S
VALLEY CITY AR FAIR      70  50  49 SE15G22   29.93S
CANDO          FAIR      68  28  22 SE10      29.90F
CAVALIER APRT  FAIR      73  23  15 SE7G16    29.94S
GWINNER        MOCLDY    70  54  56 SE22      29.95S
ROLLA          NOT AVBL
 ***** THE ABOVE OBSERVATIONS ARE NON NWS ARE NOT QUALITY
       CONTROLLED AND MAY MIS-REPORT RAIN FOR SNOW...
$$

  *****  WEATHER ACROSS NORTHERN MINNESOTA  *****

CITY           SKY/WX    TMP DP  RH WIND       PRES   REMARKS
FLAG ISLAND    FAIR      64  36  34 CALM      30.03S
WARROAD        FAIR      68  30  24 SE8       30.03S
ROSEAU         FAIR      70  19  14 SE8       30.01S
HALLOCK        FAIR      72   7   8 SE9       29.96S
THF RVR FALLS  MOCLDY    72  27  18 SE8       30.00S
BAUDETTE       FAIR      68  26  20 S5        30.04S
WASKISH        FAIR      68  34  28 CALM      30.05S
CROOKSTON      FAIR      72  36  26 SE13      29.97F
STEPHEN NDAWN    N/A     73  19  13 SE8         N/A
GREENBUSH NDAW   N/A     72  21  15 S6          N/A
$$
  *****  WEATHER ACROSS CENTRAL AND WEST MINNESOTA  *****

CITY           SKY/WX    TMP DP  RH WIND       PRES   REMARKS
FOSSTON        FAIR      70  34  26 SE9       30.01S
BEMIDJI        FAIR      66  37  34 SE8       30.04S
PARK RAPIDS    MOCLDY    71  42  35 S17       30.04S
ELBOW LAKE     CLOUDY    65  53  65 SE18      30.03R
WADENA         CLOUDY    66  46  48 SE12G18   30.05S
DETROIT LAKES  FAIR      68  46  45 S20       30.03S
MOORHEAD       CLOUDY    72  52  49 S22G30    29.98R
FERGUS FALLS   CLOUDY    66  54  63 SE20      30.02R
MORRIS MN      CLOUDY    64  54  68 SE22      30.02S
STAPLES        CLOUDY    66  43  42 SE12G21   30.06S
$$
  *****  WEATHER ELSEWHERE ACROSS MINNESOTA  *****

CITY           SKY/WX    TMP DP  RH WIND       PRES   REMARKS
DULUTH         FAIR      60  26  27 E12       30.14S
INTRNTL FALLS  FAIR      68  25  19 S5        30.07S
ELY            FAIR      63  25  23 SE12      30.14R
CLOQUET        FAIR      57  25  28 E5        30.14S
WHEATON        CLOUDY    64  54  68 SE23      30.01S
BRAINERD       CLOUDY    67  42  40 S10       30.08S
HIBBING        FAIR      68  26  20 SE10      30.10S
ALEXANDRIA     CLOUDY    64  52  64 SE16G24   30.07R
SAINT CLOUD    CLOUDY    64  49  57 SE12      30.08S
MINNEAPOLIS    CLOUDY    60  54  80 SE10      30.13R
$$

  *****  WEATHER ACROSS SOUTH DAKOTA  *****

CITY           SKY/WX    TMP DP  RH WIND       PRES   REMARKS
SIOUX FALLS    CLOUDY    66  58  75 E20       29.98S
BROOKINGS      FAIR      63  57  82 E15       30.00F
WATERTOWN      LGT RAIN  63  56  78 SE17      29.99S
HURON          CLOUDY    64  59  83 SE8       29.94S
SISSETON         N/A     66  55  67 S23G29    29.96S
ABERDEEN       CLOUDY    70  54  56 S17       29.93R
MITCHELL       CLOUDY    66  59  78 E6        29.94F
PIERRE         CLOUDY    61  54  77 SE13      29.88F
MOBRIDGE       MOCLDY    69  52  54 S20       29.85S
RAPID CITY     CLOUDY    62  51  67 S21       29.83F
$$

  *****  SOME WEATHER IN NEARBY STATES *****

CITY           SKY/WX    TMP DP  RH WIND       PRES   REMARKS
GLASGOW MT     MOSUNNY   78  40  25 SE8       29.61F
GREAT FALLS MT LGT RAIN  56  47  71 N7        29.75R
CHEYENNE WY    CLOUDY    48  44  86 SE10      29.85S
SCOTTSBLUFF NE LGT RAIN  55  53  93 SE14      29.84F
OMAHA NE       CLOUDY    73  59  61 SE10      29.97S
DES MOINES IA  CLOUDY    75  59  57 SE7       30.04R
DAVENPORT IA   CLOUDY    62  58  86 E13       30.14R FOG
CHICAGO IL     FOG       49  48  97 NE8       30.21R VSB 3/4
EAU CLAIRE WI  CLOUDY    63  41  44 SE18      30.17R
LA CROSSE WI   LGT RAIN  56  53  90 E3        30.18R FOG
$$

  *****  SOME NATIONAL WEATHER *****

CITY           SKY/WX    TMP DP  RH WIND       PRES   REMARKS
LA GUARDIA NY  MOCLDY    70  52  52 VRB5      30.16R
RALEIGH NC     FAIR      72  54  53 S5        30.25R
ATLANTA GA     FAIR      75  50  41 SE6       30.22R
NEW ORLEANS LA FAIR      74  59  59 SE9       30.09S
OKLAHOMA CITY  TSTM      66  64  94 E7        29.90S FOG
ALBUQUERQUE NM MOCLDY    55  47  74 S8        29.92R
SALT LAKE CITY PTSUNNY   66  44  45 CALM      29.75S
LOS ANGELES CA PTSUNNY   61  50  67 W12       29.94F
BOISE ID       SUNNY     69  17  13 NW17G26   29.77F
SEATTLE WA     PTSUNNY   57  41  55 W12G20    30.07R
$$

*** WEATHER ACROSS MANITOBA...SASKATCHEWAN AND ONTARIO ***
                ***ONTARIO***

CITY           SKY/WX    TMP DP  RH WIND       PRES   REMARKS
GERALDTON      CLEAR     59  28  31 SW12      30.20R
THUNDER BAY    PTCLDY    57  28  33 NE5       30.21R
SIOUX LOOKOUT  PTCLDY    63  34  34 S3        30.10S
TORONTO        MOCLDY    55  32  41 S5        30.28R
BIG TROUT LK   MOCLDY    45  23  42 NW5       30.17R
PICKLE LAKE    MOCLDY    59  34  38 E5        30.11S
DRYDEN         MOCLDY    66  27  22 S6        30.09S
KENORA         MOCLDY    68  28  22 W2        30.06F
$$
                *** MANITOBA***

CITY           SKY/WX    TMP DP  RH WIND       PRES   REMARKS
BRANDON        MOCLDY    72  32  23 S12       29.88F
DAUPHIN        MOCLDY    75  37  25 SW18G24   29.85S
ISLAND LAKE    MOCLDY    37  36  93 VRB2      30.15S
PILOT MOUND      N/A     70  21  16 S14         N/A
THE PAS        PTSUNNY   43  36  75 E8G17     30.02F
THOMPSON       PTCLDY    48  16  27 E3        30.13S
WINNIPEG       PTCLDY    72  23  16 S12       29.96S
LYNN LAKE      SUNNY     46  18  31 E8        30.11S
CHURCHILL      PTCLDY    19  14  79 N17       30.27S WCI   4
GILLAM         PTCLDY    41  21  45 CALM      30.19S
$$
                ***SASKATCHEWAN***

CITY           SKY/WX    TMP DP  RH WIND       PRES   REMARKS
ESTEVAN        MOSUNNY   73  48  40 SE20G29   29.76F
KINDERSLEY     PTSUNNY   72  37  28 SE5       29.64F
LLOYDMINSTER   MOSUNNY   64  41  42 E22       29.65F
PRINCE ALBERT  CLOUDY    54  37  54 E20G28    29.78F
REGINA         CLOUDY    73  41  31 SE14G21   29.70S
YORKTON        SUNNY     75  37  25 S13       29.77S
N. BATTLEFORD  PTSUNNY   63  43  48 E20G30    29.70F
LA RONGE       PTSUNNY   45  28  53 NE12      29.95F
SASKATOON      PTSUNNY   66  45  45 NE16      29.68F
SWIFT CURRENT  CLOUDY    66  39  37 NW6       29.65S
$$
NOTE: THESE ARE AUTOMATED STATIONS WITH LIMITED QUALITY CONTROL
      "FAIR" INDICATES FEW OR NO CLOUDS BELOW 12,000 FEET WITH NO
      SIGNIFICANT WEATHER AND/OR OBSTRUCTIONS TO VISIBILITY.
      SKY/WX - SKY CONDITION AND SIGNIFICANT WEATHER.
      TMP - AIR TEMPERATURE.    DP   - DEWPOINT TEMPERATURE.
      RH  - RELATIVE HUMIDITY.  PRES - PRESSURE.
      HX  - HEAT INDEX.         WCI  - WIND CHILL INDEX.
$



USA.gov is the U.S. government's official web portal to all federal, state and local government web resources and services.